Location: Observatoire
(46.1952°N, 5.3391°E)
Time: 01:55:27
(UTC+02:00)

DUCHIFAT 1 - Pass Details

Date: 04 May 2024
Orbit: 538 x 556 km, 98.1° (Epoch: 19 May)

Event Time Altitude Azimuth Distance (km) Brightness Sun altitude
Rises 05:33:23 0° 25° (NNE) 2,746 ? -7.9°
Reaches altitude 10° 05:35:51 10° 39° (NE) 1,842 ? -7.6°
Maximum altitude 05:39:09 25° 95° (E) 1,150 ? -7.1°
Drops below altitude 10° 05:42:24 10° 151° (SSE) 1,818 ? -6.6°
Sets 05:44:48 0° 165° (SSE) 2,702 ? -6.2°
